Regional Weather Roundup
Issued by NWS

Home | Current Version | Previous Version | Text Only | Print | Product List | Glossary Off
Versions: 1 2 3 4 5 6 7 8 9 10 11 12 13 14 15 16 17 18 19 20 21 22 23 24 25 26 27 28

000
ASUS45 KBOU 010007
RWRCO

WEATHER ROUNDUP FOR COLORADO
NATIONAL WEATHER SERVICE DENVER/BOULDER CO
500 PM MST TUE FEB 28 2017

NOTE: "FAIR" INDICATES FEW OR NO CLOUDS BELOW 12000 FEET WITH NO
SIGNIFICANT WEATHER AND/OR OBSTRUCTIONS TO VISIBILITY.

COZ001>005-013-030-031-010100-
...NORTHWEST COLORADO...

CITY           SKY/WX    TMP DP  RH WIND       PRES   REMARKS
CRAIG          PTSUNNY   19   9  65 SW5       29.94R WCI  12
HAYDEN         FAIR      23   9  54 W8        29.92R WCI  14
MEEKER         PTSUNNY   29  13  51 W13G18    29.92R WCI  19
MOUNT WERNER   NOT AVBL
STEAMBOAT SPGS MOCLDY    19   9  63 W9        29.90R WCI   9
WALDEN         NOT AVBL
$$

COZ006>008-011-010100-
...WEST CENTRAL VALLEYS...

CITY           SKY/WX    TMP DP  RH WIND       PRES   REMARKS
GRAND JUNCTION PTSUNNY   36  24  62 N6        29.94R
MONTROSE       CLOUDY    32  25  75 N5        29.94R WCI  27
EAGLE          PTSUNNY   27  14  59 SW16      29.90R WCI  14
RIFLE          CLOUDY    33  13  43 W12       29.92R WCI  24
DELTA          FAIR      41  17  38 NW21G26   29.92R
NUCLA          FAIR      37  10  32 NW15G23   29.95R
$$

COZ017>023-064>068-010100-
...SOUTHWEST COLORADO...

CITY           SKY/WX    TMP DP  RH WIND       PRES   REMARKS
DURANGO        FAIR      32  24  72 W17       29.87R WCI  21
CORTEZ         LGT SNOW  33  32  96 CALM      29.94R FOG
PAGOSA SPRINGS FAIR      32  20  61 SW18G25   29.84R WCI  20
TELLURIDE      LGT SNOW  22  18  81 NW10      29.88R WCI  12
WOLF CREEK PAS CLOUDY    12  12 100 SW30G41   29.78R WCI  -9
$$

COZ009-010-012-014-032>034-037-058>063-010100-
...CENTRAL COLORADO...

CITY           SKY/WX    TMP DP  RH WIND       PRES   REMARKS
ASPEN          SNOW      18  14  84 N20       29.85R VSB 1/2 WCI   2
BUENA VISTA    CLOUDY    28  10  46 W8G23     29.75R WCI  20
COPPER MTN     CLOUDY     9   1  72 MISG      29.68R
BERTHOUD PASS  SNOW      -4 -13  65 NW33G41   29.61S VSB 1/4 WCI -32
COTTONWOOD PAS CLOUDY    23  10  58 NW6       29.72R HAZE    WCI  16
GUNNISON       LGT SNOW  25  19  80 W10G18    29.84R FOG     WCI  15
KREMMLING      CLOUDY    23  10  58 NW10G18   29.88R WCI  12
LEADVILLE      LGT SNOW  13   8  81 NW8G16    29.73R WCI   2
MONARCH PASS     N/A     10   7  85 W41G52    29.75R WCI -15
SALIDA         MOCLDY    33  12  41 W12G18    29.83R WCI  24
SUNLIGHT       NOT AVBL
WILKERSON PASS CLOUDY    18   5  57 W10G22    29.71R WCI   6
$$

COZ069>075-010100-
...SAN LUIS VALLEY/SANGRE DE CRISTO MOUNTAINS...

CITY           SKY/WX    TMP DP  RH WIND       PRES   REMARKS
ALAMOSA        FAIR      36  17  46 SW21G32   29.76R
LA VETA PASS   FAIR      23  12  63 S32G54    29.65R WCI   5
SAGUACHE       FAIR      32  14  47 NW21G33   29.76R WCI  20
$$

COZ035-036-038>040-010100-
...NORTHERN COLORADO FRONT RANGE...

CITY           SKY/WX    TMP DP  RH WIND       PRES   REMARKS
DENVER INTL AP FLURRIES  28  24  85 E10       29.79R WCI  19
DMNS CITY PARK   N/A     31  24  74 NE3G15    29.80R
AURORA         CLOUDY    28  24  84 E9        29.78R WCI  19
FRONT RANGE AP CLOUDY    30  27  86 NE9       29.80R WCI  22
ERIE MUNI ARPT LGT SNOW  32  28  85 NE6       29.82R WCI  26
BOULDER MUN AP MOCLDY    34  27  75 N12G26    29.80R WCI  25
CENTENNIAL     LGT SNOW  28  24  85 E10       29.76R FOG     WCI  19
BROOMFIELD     NOT AVBL
FORT COLLINS   MIX PCPN  33  29  85 CALM      29.82R
LONGMONT       NOT AVBL
$$

COZ041-046-047-076>085-087-088-010100-
...PIKES PEAK/PALMER DIVIDE AND SOUTHERN FOOTHILLS...

CITY           SKY/WX    TMP DP  RH WIND       PRES   REMARKS
COLO. SPRINGS  MOCLDY    34  24  67 E7        29.72R WCI  28
A. F. ACADEMY  MOCLDY    32  26  77 NW6       29.71R WCI  27
SCHRIEVER AFB  FAIR      33  21  61 NE9       29.72R WCI  26
ELLICOTT       FAIR     N/A N/A N/A E12       29.69S
FALCON         CLOUDY    30  24  77 E5        29.73R WCI  25
FORT CARSON    PTCLDY    34  29  83 N3        29.72R
LIMON          FAIR      28  22  78 N20       29.75R WCI  15
MONUMENT HILL  LGT SNOW  27  23  86 NE8       29.74R WCI  18
TRINIDAD       FAIR      49   4  16 W30G39    29.67R
$$

COZ042>045-048>051-090-091-010100-
...NORTHEAST COLORADO...

CITY           SKY/WX    TMP DP  RH WIND       PRES   REMARKS
GREELEY ARPT   LGT SNOW  32  27  80 CALM      29.84R
AKRON          CLOUDY    28  21  75 CALM      29.79R
BURLINGTON     MOCLDY    32  22  66 N21G31    29.79R WCI  20
WRAY           CLOUDY    32  28  86 N3        29.82
STERLING       FAIR      32  28  86 SW6       29.80R WCI  26
HOLYOKE        FAIR      37  14  38 NW14      29.80R
FORT MORGAN    CLOUDY    28  26  91 MISG      29.81R
$$

COZ086-089-092>099-010100-
...SOUTHEAST COLORADO...

CITY           SKY/WX    TMP DP  RH WIND       PRES   REMARKS
PUEBLO         MOCLDY    41  24  51 N10       29.70R
LA JUNTA       FAIR      45  10  24 NE23      29.69R
LAMAR          FAIR      47   7  19 NE20G28   29.69R
SPRINGFIELD      N/A     49  17  28 N17       29.66R
$$




USA.gov is the U.S. government's official web portal to all federal, state and local government web resources and services.